TimeCDT,TemperatureF,Dew PointF,Humidity,Sea Level PressureIn,VisibilityMPH,Wind Direction,Wind SpeedMPH,Gust SpeedMPH,PrecipitationIn,Events,Conditions,WindDirDegrees,DateUTC
12:15 AM,65.8,65.7,99,30.02,5.0,Calm,Calm,-,N/A,,Clear,0,2012-10-06 05:15:00
12:35 AM,66.2,66.2,100,30.02,5.0,Calm,Calm,-,N/A,,Clear,0,2012-10-06 05:35:00
12:55 AM,65.8,65.7,99,30.01,7.0,Calm,Calm,-,N/A,,Clear,0,2012-10-06 05:55:00
1:15 AM,65.5,65.5,100,30.01,7.0,Calm,Calm,-,N/A,,Clear,0,2012-10-06 06:15:00
3:15 AM,66.7,66.6,99,30.02,7.0,NW,5.8,-,N/A,,Clear,310,2012-10-06 08:15:00
3:35 AM,66.7,66.2,98,30.01,7.0,Calm,Calm,-,N/A,,Clear,0,2012-10-06 08:35:00
3:55 AM,66.6,66.0,98,30.01,7.0,WNW,3.5,-,N/A,,Clear,290,2012-10-06 08:55:00
4:35 AM,67.6,66.6,96,30.02,7.0,North,6.9,-,N/A,,Clear,360,2012-10-06 09:35:00
4:55 AM,67.5,66.4,96,30.03,7.0,North,8.1,-,N/A,,Mostly Cloudy,10,2012-10-06 09:55:00
5:15 AM,67.1,66.6,98,30.03,4.0,NNE,6.9,-,N/A,,Overcast,30,2012-10-06 10:15:00
5:35 AM,67.6,67.1,98,30.03,5.0,NE,6.9,-,N/A,,Overcast,40,2012-10-06 10:35:00
5:55 AM,66.2,64.4,94,30.04,5.0,NE,11.5,-,N/A,,Overcast,40,2012-10-06 10:55:00
6:15 AM,63.5,62.1,95,30.06,7.0,NNE,11.5,-,N/A,,Overcast,20,2012-10-06 11:15:00
6:35 AM,62.1,60.6,95,30.07,7.0,North,9.2,-,N/A,,Overcast,10,2012-10-06 11:35:00
6:55 AM,61.3,59.4,93,30.07,10.0,NNE,8.1,-,N/A,,Overcast,20,2012-10-06 11:55:00
7:15 AM,60.3,58.1,93,30.08,7.0,NNE,10.4,-,N/A,,Overcast,20,2012-10-06 12:15:00
7:35 AM,59.9,57.6,92,30.09,10.0,NNE,6.9,-,N/A,,Overcast,30,2012-10-06 12:35:00
7:55 AM,59.9,57.2,91,30.10,10.0,NNE,8.1,-,N/A,,Overcast,20,2012-10-06 12:55:00
8:15 AM,59.4,56.5,90,30.10,10.0,NNE,8.1,-,N/A,,Overcast,20,2012-10-06 13:15:00
8:35 AM,59.2,56.3,90,30.11,10.0,NE,8.1,16.1,N/A,,Overcast,40,2012-10-06 13:35:00
10:15 AM,58.5,55.6,90,30.13,10.0,NNE,8.1,-,N/A,,Overcast,30,2012-10-06 15:15:00
12:35 PM,59.2,53.6,82,30.11,10.0,NNE,8.1,-,N/A,,Overcast,20,2012-10-06 17:35:00
12:55 PM,59.4,53.4,81,30.11,10.0,North,6.9,-,N/A,,Overcast,360,2012-10-06 17:55:00
1:15 PM,59.9,53.6,80,30.10,10.0,NE,9.2,-,N/A,,Overcast,40,2012-10-06 18:15:00
1:35 PM,59.5,53.4,80,30.10,10.0,NNE,5.8,-,N/A,,Overcast,20,2012-10-06 18:35:00
1:55 PM,59.4,53.4,81,30.09,10.0,NNE,8.1,-,N/A,,Overcast,20,2012-10-06 18:55:00
2:15 PM,59.4,53.6,81,30.09,10.0,NE,8.1,-,N/A,,Overcast,50,2012-10-06 19:15:00
2:35 PM,60.1,53.8,80,30.08,10.0,NNE,9.2,-,N/A,,Overcast,20,2012-10-06 19:35:00
2:55 PM,59.4,53.6,81,30.08,10.0,North,9.2,-,N/A,,Overcast,10,2012-10-06 19:55:00
3:15 PM,58.1,52.7,82,30.08,10.0,North,10.4,-,N/A,,Overcast,360,2012-10-06 20:15:00
3:35 PM,58.1,52.7,82,30.08,10.0,North,10.4,-,N/A,,Overcast,10,2012-10-06 20:35:00
3:55 PM,58.5,52.3,80,30.09,10.0,NNE,8.1,-,N/A,,Overcast,20,2012-10-06 20:55:00
4:15 PM,57.6,52.0,82,30.09,10.0,North,10.4,-,N/A,,Overcast,10,2012-10-06 21:15:00
4:55 PM,56.5,51.4,83,30.09,10.0,North,8.1,-,N/A,,Overcast,360,2012-10-06 21:55:00
5:15 PM,55.9,51.1,84,30.09,10.0,NNE,10.4,-,N/A,,Overcast,20,2012-10-06 22:15:00
5:35 PM,55.4,50.5,84,30.09,10.0,NNE,10.4,-,N/A,,Overcast,20,2012-10-06 22:35:00
6:15 PM,55.4,50.2,83,30.10,10.0,North,8.1,-,N/A,,Overcast,10,2012-10-06 23:15:00
6:35 PM,55.0,50.0,83,30.10,10.0,NNE,9.2,-,N/A,,Overcast,20,2012-10-06 23:35:00
7:15 PM,54.5,49.5,83,30.11,10.0,NNE,8.1,-,N/A,,Overcast,20,2012-10-07 00:15:00
7:35 PM,54.5,49.5,83,30.11,10.0,NNE,6.9,-,N/A,,Overcast,30,2012-10-07 00:35:00
7:55 PM,54.3,49.3,83,30.12,10.0,North,11.5,-,N/A,,Overcast,10,2012-10-07 00:55:00
8:15 PM,54.0,48.6,82,30.14,10.0,North,11.5,-,N/A,,Overcast,10,2012-10-07 01:15:00
8:35 PM,53.6,48.6,83,30.14,10.0,North,13.8,-,N/A,,Overcast,350,2012-10-07 01:35:00
9:35 PM,52.2,46.6,81,30.16,10.0,NNE,8.1,-,N/A,,Overcast,20,2012-10-07 02:35:00
9:55 PM,52.0,46.4,81,30.16,10.0,NNE,8.1,-,N/A,,Overcast,20,2012-10-07 02:55:00
10:15 PM,51.4,45.7,81,30.17,10.0,NNE,11.5,17.3,N/A,,Overcast,20,2012-10-07 03:15:00
11:55 PM,50.4,44.8,81,30.17,10.0,NNE,10.4,-,N/A,,Overcast,30,2012-10-07 04:55:00